DW8769 Cullera ES current weather conditions

sailwx.info

Wind from 321

Air temperature 11.7° C
Dewpoint 8.9° C

Last reported at 2018-Jan-19 01:01 UTC.
Time now 2018-Jan-19 02:03 UTC

Location: N 39°10' W 000°14'.
View on Google Maps.

See reports from other nearby stations

  
Tides and Currents Weather Stations Pressure Air Temp Water Temp Dewpoint Dewpoint Depression Visibility Wind Speed Wind Dir Waves Ship Positions
date/time (UTC)wind fromknots sea level pressurealtimeterstation pressurevisibilityair tempwater tempwave heightnotes
2018-Jan-19 01:01 321 11.7
2018-Jan-19 00:46 309 11.7
2018-Jan-19 00:31 306 11.7
2018-Jan-19 00:16 360 11.1
2018-Jan-19 00:01 277 11.1
2018-Jan-18 23:46 355 4 gusting 7 11.1
2018-Jan-18 23:31 205 0 gusting 5 10.6
2018-Jan-18 23:16 098 10.6
2018-Jan-18 23:01 087 11.1
2018-Jan-18 22:46 087 11.1
2018-Jan-18 22:31 087 11.1
2018-Jan-18 22:16 090 0 gusting 4 11.7
2018-Jan-18 22:01 256 11.7
2018-Jan-18 21:46 005 3 gusting 7 11.7
2018-Jan-18 21:31 113 12.2
2018-Jan-18 21:16 113 12.2
2018-Jan-18 21:01 113 12.8
2018-Jan-18 20:46 113 12.8
2018-Jan-18 20:31 113 12.8
2018-Jan-18 20:16 113 12.8
2018-Jan-18 20:01 113 12.8
2018-Jan-18 19:46 113 12.8
2018-Jan-18 19:31 113 12.8
2018-Jan-18 19:16 113 12.8
2018-Jan-18 19:01 113 12.8
2018-Jan-18 18:46 113 12.8
2018-Jan-18 18:31 113 0 gusting 3 12.8
2018-Jan-18 18:16 113 12.8
2018-Jan-18 18:01 113 2 gusting 6 12.8
2018-Jan-18 17:46 113 12.8
2018-Jan-18 17:31 113 12.8
2018-Jan-18 17:16 113 0 gusting 4 13.3
2018-Jan-18 17:01 113 13.3
2018-Jan-18 16:46 113 13.3
2018-Jan-18 16:31 101 13.3
2018-Jan-18 16:16 097 1 gusting 7 13.3
2018-Jan-18 16:01 094 0 gusting 7 13.3
2018-Jan-18 15:46 081 13.9
2018-Jan-18 15:31 081 2 gusting 6 13.3
2018-Jan-18 15:15 072 13.3
2018-Jan-18 15:00 072 13.9
2018-Jan-18 14:45 070 13.3
2018-Jan-18 14:30 071 0 gusting 3 13.9
2018-Jan-18 14:15 069 0 gusting 3 13.9
2018-Jan-18 14:00 069 13.9
2018-Jan-18 13:45 068 0 gusting 3 13.9
2018-Jan-18 13:30 068 13.9
2018-Jan-18 13:15 068 13.9
2018-Jan-18 13:00 068 13.9
2018-Jan-18 12:45 068 13.9
2018-Jan-18 12:30 066 14.4
2018-Jan-18 12:15 067 13.9
2018-Jan-18 12:00 066 2 gusting 6 13.9
2018-Jan-18 11:45 341 13.9
2018-Jan-18 11:30 317 14.4
2018-Jan-18 11:15 317 13.9
2018-Jan-18 11:00 331 1 gusting 5 13.3
2018-Jan-18 10:45 340 0 gusting 7 13.3
2018-Jan-18 10:30 355 3 gusting 6 13.3
2018-Jan-18 10:15 337 2 gusting 6 12.8
2018-Jan-18 10:00 311 2 gusting 6 12.8
2018-Jan-18 09:44 336 0 gusting 6 12.8
2018-Jan-18 09:29 287 12.2
2018-Jan-18 09:14 275 12.2
2018-Jan-18 08:59 346 1 gusting 6 11.7
2018-Jan-18 08:44 265 0 gusting 6 11.7
2018-Jan-18 08:29 317 11.7
2018-Jan-18 08:14 337 0 gusting 8 11.1
2018-Jan-18 07:59 344 2 gusting 7 11.1
2018-Jan-18 07:44 257 11.1
2018-Jan-18 07:29 304 11.1
2018-Jan-18 07:14 110 10.6
2018-Jan-18 06:59 110 10.6
2018-Jan-18 06:44 110 10.6
2018-Jan-18 06:29 110 10.0
2018-Jan-18 06:14 111 10.6
2018-Jan-18 05:59 113 11.1
2018-Jan-18 05:44 113 11.1
2018-Jan-18 05:29 113 11.1
2018-Jan-18 05:14 113 11.1
2018-Jan-18 04:59 113 11.1
2018-Jan-18 04:44 113 11.1
2018-Jan-18 04:29 113 11.1
2018-Jan-18 04:14 113 11.7
2018-Jan-18 03:59 113 12.2
2018-Jan-18 03:44 113 12.2
2018-Jan-18 03:29 113 12.8
2018-Jan-18 03:14 113 13.3
2018-Jan-18 02:59 113 13.3
2018-Jan-18 02:44 067 13.3
2018-Jan-18 02:28 078 0 gusting 9 13.3
2018-Jan-18 02:13 121 1 gusting 9 13.3
2018-Jan-18 01:58 101 1 gusting 6 12.8
2018-Jan-18 01:43 226 0 gusting 9 13.3
2018-Jan-18 01:28 156 1 gusting 7 13.3
2018-Jan-18 01:13 126 1 gusting 8 13.9
2018-Jan-18 00:58 095 0 gusting 6 13.3
2018-Jan-18 00:43 127 13.3
2018-Jan-18 00:28 151 0 gusting 5 13.3
2018-Jan-18 00:13 148 0 gusting 5 13.3
2018-Jan-17 23:58 158 0 gusting 6 13.3
2018-Jan-17 23:43 095 2 gusting 7 13.9
2018-Jan-17 23:28 189 2 gusting 9 14.4
2018-Jan-17 23:13 158 0 gusting 9 13.9
2018-Jan-17 22:58 147 0 gusting 10 13.9
2018-Jan-17 22:43 154 0 gusting 8 13.9
2018-Jan-17 22:28 135 2 gusting 10 13.9